| time (UTC) | temp C | wind direction | speed KPH | gust KPH | rain 1hr cm | rain 24hr cm | rain mn cm | humidity % | barometer mb |
| 20260503220427 | 13 | 44 | 1.6 | 6.4 | 0.00 | 0.00 | 0.00 | 32 | 1017.3 |
| 20260503215925 | 13 | 248 | 6.4 | 12.9 | 0.00 | 0.00 | 0.00 | 35 | 1017.3 |
| 20260503215421 | 13 | 199 | 4.8 | 9.7 | 0.00 | 0.00 | 0.00 | 35 | 1017.1 |
| 20260503214919 | 13 | 192 | 8.0 | 12.9 | 0.00 | 0.00 | 0.00 | 32 | 1017.1 |
| 20260503214416 | 13 | 172 | 1.6 | 12.9 | 0.00 | 0.00 | 0.00 | 36 | 1017.0 |
| 20260503213914 | 12 | 313 | 6.4 | 11.3 | 0.00 | 0.00 | 0.00 | 34 | 1017.1 |
| 20260503213412 | 12 | 317 | 4.8 | 9.7 | 0.00 | 0.00 | 0.00 | 35 | 1017.1 |
| 20260503212908 | 13 | 31 | 9.7 | 17.7 | 0.00 | 0.00 | 0.00 | 33 | 1017.1 |
| 20260503212406 | 13 | 297 | 6.4 | 11.3 | 0.00 | 0.00 | 0.00 | 35 | 1017.3 |
| 20260503211903 | 14 | 181 | 6.4 | 6.4 | 0.00 | 0.00 | 0.00 | 35 | 1017.4 |
| 20260503211359 | 13 | 273 | 3.2 | 6.4 | 0.00 | 0.00 | 0.00 | 35 | 1017.6 |
| 20260503210854 | 13 | 212 | 4.8 | 6.4 | 0.00 | 0.00 | 0.00 | 33 | 1017.3 |
| 20260503210352 | 13 | 264 | 0.0 | 4.8 | 0.00 | 0.00 | 0.00 | 37 | 1017.4 |
| 20260503205847 | 12 | 62 | 4.8 | 6.4 | 0.00 | 0.00 | 0.00 | 33 | 1017.5 |
| 20260503205344 | 13 | 315 | 8.0 | 20.9 | 0.00 | 0.00 | 0.00 | 33 | 1017.5 |
| 20260503204840 | 13 | 243 | 0.0 | 6.4 | 0.00 | 0.00 | 0.00 | 36 | 1017.7 |
| 20260503204338 | 12 | 275 | 3.2 | 11.3 | 0.00 | 0.00 | 0.00 | 35 | 1017.6 |
| 20260503203835 | 13 | 280 | 6.4 | 9.7 | 0.00 | 0.00 | 0.00 | 33 | 1017.7 |
| 20260503203332 | 13 | 340 | 9.7 | 11.3 | 0.00 | 0.00 | 0.00 | 35 | 1017.8 |
| 20260503202829 | 13 | 259 | 6.4 | 12.9 | 0.00 | 0.00 | 0.00 | 34 | 1017.9 |
| 20260503202327 | 13 | 92 | 3.2 | 6.4 | 0.00 | 0.00 | 0.00 | 33 | 1017.9 |
| 20260503201825 | 12 | 266 | 3.2 | 16.1 | 0.00 | 0.00 | 0.00 | 34 | 1017.7 |
| 20260503201321 | 12 | 271 | 3.2 | 6.4 | 0.00 | 0.00 | 0.00 | 35 | 1018.0 |
| 20260503200819 | 13 | 344 | 3.2 | 11.3 | 0.00 | 0.00 | 0.00 | 32 | 1018.2 |
| 20260503200315 | 13 | 164 | 3.2 | 6.4 | 0.00 | 0.00 | 0.00 | 38 | 1018.3 |
| 20260503195813 | 13 | 191 | 8.0 | 12.9 | 0.00 | 0.00 | 0.00 | 35 | 1018.2 |
| 20260503195309 | 12 | 163 | 4.8 | 12.9 | 0.00 | 0.00 | 0.00 | 36 | 1018.3 |
| 20260503194806 | 12 | 5 | 4.8 | 9.7 | 0.00 | 0.00 | 0.00 | 34 | 1018.5 |
| 20260503194302 | 12 | 263 | 14.5 | 24.1 | 0.00 | 0.00 | 0.00 | 35 | 1018.7 |
| 20260503193758 | 12 | 19 | 6.4 | 14.5 | 0.00 | 0.00 | 0.00 | 34 | 1018.6 |
| 20260503193254 | 13 | 219 | 1.6 | 11.3 | 0.00 | 0.00 | 0.00 | 33 | 1018.5 |
| 20260503192750 | 12 | 220 | 6.4 | 6.4 | 0.00 | 0.00 | 0.00 | 37 | 1018.8 |
| 20260503192245 | 12 | 292 | 8.0 | 9.7 | 0.00 | 0.00 | 0.00 | 35 | 1018.6 |
| 20260503191743 | 12 | 30 | 9.7 | 16.1 | 0.00 | 0.00 | 0.00 | 35 | 1018.7 |
| 20260503191240 | 12 | 203 | 8.0 | 9.7 | 0.00 | 0.00 | 0.00 | 38 | 1018.7 |
| 20260503190736 | 12 | 267 | 8.0 | 12.9 | 0.00 | 0.00 | 0.00 | 37 | 1018.9 |
| 20260503190233 | 11 | 215 | 8.0 | 9.7 | 0.00 | 0.00 | 0.00 | 45 | 1018.9 |
| 20260503185731 | 12 | 225 | 8.0 | 16.1 | 0.00 | 0.00 | 0.00 | 35 | 1019.1 |
| 20260503185226 | 12 | 315 | 3.2 | 11.3 | 0.00 | 0.00 | 0.00 | 36 | 1019.1 |
| 20260503184721 | 12 | 350 | 3.2 | 11.3 | 0.00 | 0.00 | 0.00 | 38 | 1019.2 |
| 20260503184217 | 12 | 291 | 3.2 | 4.8 | 0.00 | 0.00 | 0.00 | 39 | 1019.3 |
| 20260503183714 | 11 | 115 | 3.2 | 9.7 | 0.00 | 0.00 | 0.00 | 42 | 1019.2 |
| 20260503183211 | 12 | 335 | 3.2 | 4.8 | 0.00 | 0.00 | 0.00 | 37 | 1019.1 |
| 20260503182709 | 12 | 202 | 8.0 | 12.9 | 0.00 | 0.00 | 0.00 | 40 | 1019.5 |
| 20260503182208 | 11 | 218 | 4.8 | 6.4 | 0.00 | 0.00 | 0.00 | 39 | 1019.2 |
| 20260503181703 | 11 | 267 | 4.8 | 6.4 | 0.00 | 0.00 | 0.00 | 36 | 1019.5 |
| 20260503181200 | 10 | 263 | 4.8 | 22.5 | 0.00 | 0.00 | 0.00 | 38 | 1019.6 |
| 20260503180657 | 11 | 270 | 12.9 | 33.8 | 0.00 | 0.00 | 0.00 | 39 | 1019.7 |
| 20260503180156 | 11 | 250 | 8.0 | 14.5 | 0.00 | 0.00 | 0.00 | 39 | 1019.6 |
| 20260503175652 | 11 | 39 | 3.2 | 14.5 | 0.00 | 0.00 | 0.00 | 36 | 1019.6 |
| 20260503175150 | 11 | 122 | 4.8 | 6.4 | 0.00 | 0.00 | 0.00 | 37 | 1019.6 |
| 20260503174646 | 11 | 263 | 3.2 | 14.5 | 0.00 | 0.00 | 0.00 | 44 | 1019.8 |
| 20260503174143 | 10 | 148 | 4.8 | 4.8 | 0.00 | 0.00 | 0.00 | 41 | 1019.7 |
| 20260503173638 | 10 | 292 | 6.4 | 9.7 | 0.00 | 0.00 | 0.00 | 40 | 1019.9 |
| 20260503173135 | 10 | 272 | 4.8 | 4.8 | 0.00 | 0.00 | 0.00 | 40 | 1019.8 |
| 20260503172632 | 10 | 156 | 3.2 | 17.7 | 0.00 | 0.00 | 0.00 | 41 | 1019.8 |
| 20260503172129 | 10 | 281 | 6.4 | 11.3 | 0.00 | 0.00 | 0.00 | 40 | 1019.9 |
| 20260503171625 | 10 | 81 | 1.6 | 6.4 | 0.00 | 0.00 | 0.00 | 38 | 1019.8 |
| 20260503171123 | 9 | 338 | 1.6 | 16.1 | 0.00 | 0.00 | 0.00 | 39 | 1020.0 |
| 20260503170620 | 10 | 141 | 1.6 | 4.8 | 0.00 | 0.00 | 0.00 | 39 | 1020.0 |
| 20260503170116 | 10 | 33 | 3.2 | 6.4 | 0.00 | 0.00 | 0.00 | 43 | 1020.0 |
| 20260503151012 | 7 | 280 | 9.7 | 14.5 | 0.00 | 0.00 | 0.00 | 47 | 1021.1 |
| 20260503150508 | 7 | 261 | 6.4 | 9.7 | 0.00 | 0.00 | 0.00 | 46 | 1021.2 |
| 20260503131401 | 5 | 197 | 3.2 | 11.3 | 0.00 | 0.00 | 0.00 | 62 | 1020.8 |
| 20260503130858 | 5 | 278 | 3.2 | 9.7 | 0.00 | 0.00 | 0.00 | 62 | 1020.8 |
| 20260503130356 | 5 | 77 | 4.8 | 9.7 | 0.00 | 0.00 | 0.00 | 61 | 1020.9 |
| 20260503110755 | 0 | 206 | 0.0 | 0.0 | 0.00 | 0.00 | 0.00 | 92 | 1019.9 |
| 20260503110252 | 0 | 206 | 0.0 | 0.0 | 0.00 | 0.00 | 0.00 | 92 | 1019.9 |
| 20260503100218 | 0 | 264 | 0.0 | 0.0 | 0.00 | 0.00 | 0.00 | 90 | 1019.1 |
| 20260503090143 | 1 | 172 | 0.0 | 0.0 | 0.00 | 0.00 | 0.00 | 83 | 1018.5 |
| 20260503081618 | 2 | 166 | 3.2 | 3.2 | 0.00 | 0.00 | 0.00 | 80 | 1018.6 |
| 20260503081115 | 2 | 115 | 0.0 | 0.0 | 0.00 | 0.00 | 0.00 | 81 | 1018.6 |
| 20260503080611 | 2 | 57 | 0.0 | 0.0 | 0.00 | 0.00 | 0.00 | 81 | 1018.4 |
| 20260503080108 | 2 | 330 | 3.2 | 6.4 | 0.00 | 0.00 | 0.00 | 79 | 1018.3 |
| 20260503072545 | 2 | 257 | 0.0 | 1.6 | 0.00 | 0.00 | 0.00 | 79 | 1018.2 |
| 20260503072042 | 2 | 76 | 0.0 | 1.6 | 0.00 | 0.00 | 0.00 | 79 | 1017.9 |
| 20260503071539 | 2 | 195 | 0.0 | 1.6 | 0.00 | 0.00 | 0.00 | 80 | 1018.0 |
| 20260503071036 | 2 | 95 | 1.6 | 3.2 | 0.00 | 0.00 | 0.00 | 79 | 1017.8 |
| 20260503070532 | 2 | 263 | 1.6 | 6.4 | 0.00 | 0.00 | 0.00 | 80 | 1017.7 |
| 20260503060145 | 3 | 238 | 0.0 | 0.0 | 0.00 | 0.00 | 0.00 | 79 | 1017.9 |
| 20260503054632 | 2 | 287 | 1.6 | 6.4 | 0.00 | 0.00 | 0.00 | 78 | 1017.6 |
| 20260503054129 | 2 | 287 | 1.6 | 6.4 | 0.00 | 0.00 | 0.00 | 78 | 1017.6 |
| 20260503053627 | 2 | 241 | 0.0 | 0.0 | 0.00 | 0.00 | 0.00 | 82 | 1017.7 |
| 20260503053126 | 2 | 317 | 0.0 | 0.0 | 0.00 | 0.00 | 0.00 | 81 | 1017.7 |
| 20260503052621 | 2 | 235 | 0.0 | 0.0 | 0.00 | 0.00 | 0.00 | 81 | 1017.7 |
| 20260503052118 | 2 | 235 | 0.0 | 0.0 | 0.00 | 0.00 | 0.00 | 81 | 1017.8 |
| 20260503051613 | 2 | 222 | 0.0 | 0.0 | 0.00 | 0.00 | 0.00 | 79 | 1017.7 |
| 20260503051111 | 2 | 254 | 0.0 | 0.0 | 0.00 | 0.00 | 0.00 | 79 | 1017.7 |
| 20260503050607 | 2 | 295 | 0.0 | 0.0 | 0.00 | 0.00 | 0.00 | 78 | 1017.6 |
| 20260503050105 | 2 | 306 | 3.2 | 3.2 | 0.00 | 0.00 | 0.00 | 78 | 1017.5 |
| 20260503045601 | 3 | 35 | 3.2 | 4.8 | 0.00 | 0.00 | 0.00 | 76 | 1017.8 |
| 20260503045059 | 3 | 35 | 3.2 | 4.8 | 0.00 | 0.00 | 0.00 | 76 | 1017.8 |
| 20260503044555 | 3 | 26 | 1.6 | 3.2 | 0.00 | 0.00 | 0.00 | 76 | 1017.7 |
| 20260503044053 | 3 | 36 | 4.8 | 11.3 | 0.00 | 0.00 | 0.00 | 75 | 1017.5 |
| 20260503043549 | 3 | 114 | 0.0 | 1.6 | 0.00 | 0.00 | 0.00 | 74 | 1017.8 |
| 20260503043046 | 3 | 199 | 0.0 | 0.0 | 0.00 | 0.00 | 0.00 | 76 | 1017.9 |
| 20260503042543 | 3 | 199 | 0.0 | 0.0 | 0.00 | 0.00 | 0.00 | 76 | 1017.9 |
| 20260503042038 | 3 | 46 | 0.0 | 0.0 | 0.00 | 0.00 | 0.00 | 73 | 1017.8 |
| 20260503041536 | 3 | 49 | 4.8 | 6.4 | 0.00 | 0.00 | 0.00 | 72 | 1017.7 |
| 20260503041033 | 3 | 308 | 3.2 | 9.7 | 0.00 | 0.00 | 0.00 | 72 | 1017.8 |
| 20260503040531 | 4 | 67 | 3.2 | 3.2 | 0.00 | 0.00 | 0.00 | 72 | 1017.8 |
| 20260503040028 | 4 | 269 | 1.6 | 9.7 | 0.00 | 0.00 | 0.00 | 71 | 1017.8 |
| 20260503035524 | 4 | 353 | 3.2 | 4.8 | 0.00 | 0.00 | 0.00 | 71 | 1017.8 |
| 20260503035022 | 4 | 46 | 0.0 | 3.2 | 0.00 | 0.00 | 0.00 | 72 | 1017.7 |
| 20260503034519 | 4 | 5 | 3.2 | 9.7 | 0.00 | 0.00 | 0.00 | 70 | 1017.5 |
| 20260503034016 | 4 | 44 | 3.2 | 11.3 | 0.00 | 0.00 | 0.00 | 70 | 1017.7 |
| 20260503033513 | 5 | 82 | 1.6 | 6.4 | 0.00 | 0.00 | 0.00 | 70 | 1017.6 |
| 20260503033011 | 5 | 80 | 8.0 | 11.3 | 0.00 | 0.00 | 0.00 | 69 | 1017.9 |
| 20260503032509 | 5 | 80 | 8.0 | 11.3 | 0.00 | 0.00 | 0.00 | 69 | 1017.9 |
| 20260503032008 | 5 | 43 | 14.5 | 16.1 | 0.00 | 0.00 | 0.00 | 68 | 1017.6 |
| 20260503031505 | 5 | 93 | 3.2 | 6.4 | 0.00 | 0.00 | 0.00 | 68 | 1017.6 |
| 20260503031001 | 5 | 58 | 9.7 | 12.9 | 0.00 | 0.00 | 0.00 | 68 | 1017.8 |
| 20260503030457 | 5 | 54 | 4.8 | 14.5 | 0.00 | 0.00 | 0.00 | 66 | 1017.7 |
| 20260503025954 | 5 | 22 | 6.4 | 11.3 | 0.00 | 0.00 | 0.00 | 66 | 1017.7 |
| 20260503025451 | 5 | 77 | 3.2 | 6.4 | 0.00 | 0.00 | 0.00 | 65 | 1017.7 |
| 20260503024949 | 5 | 41 | 8.0 | 14.5 | 0.00 | 0.00 | 0.00 | 65 | 1017.7 |
| 20260503024445 | 5 | 17 | 1.6 | 4.8 | 0.00 | 0.00 | 0.00 | 64 | 1017.6 |
| 20260503023943 | 5 | 63 | 6.4 | 12.9 | 0.00 | 0.00 | 0.00 | 63 | 1017.5 |
| 20260503023439 | 5 | 63 | 6.4 | 12.9 | 0.00 | 0.00 | 0.00 | 63 | 1017.5 |
| 20260503022936 | 5 | 42 | 0.0 | 4.8 | 0.00 | 0.00 | 0.00 | 64 | 1017.7 |
| 20260503022431 | 5 | 68 | 6.4 | 11.3 | 0.00 | 0.00 | 0.00 | 63 | 1017.7 |
| 20260503021927 | 5 | 87 | 1.6 | 4.8 | 0.00 | 0.00 | 0.00 | 63 | 1017.7 |
| 20260503021423 | 5 | 130 | 4.8 | 9.7 | 0.00 | 0.00 | 0.00 | 61 | 1017.7 |
| 20260503020921 | 6 | 80 | 6.4 | 9.7 | 0.00 | 0.00 | 0.00 | 61 | 1017.6 |
| 20260503020419 | 6 | 65 | 8.0 | 12.9 | 0.00 | 0.00 | 0.00 | 61 | 1017.4 |
| 20260503015915 | 6 | 64 | 6.4 | 20.9 | 0.00 | 0.00 | 0.00 | 60 | 1017.4 |
| 20260503015412 | 6 | 32 | 9.7 | 14.5 | 0.00 | 0.00 | 0.00 | 59 | 1017.3 |
| 20260503014908 | 6 | 71 | 11.3 | 16.1 | 0.00 | 0.00 | 0.00 | 59 | 1017.4 |
| 20260503014406 | 6 | 36 | 4.8 | 4.8 | 0.00 | 0.00 | 0.00 | 59 | 1017.4 |
| 20260503013903 | 5 | 90 | 6.4 | 11.3 | 0.00 | 0.00 | 0.00 | 60 | 1017.1 |
| 20260503013400 | 6 | 33 | 4.8 | 11.3 | 0.00 | 0.00 | 0.00 | 58 | 1017.3 |
| 20260503012857 | 6 | 42 | 4.8 | 9.7 | 0.00 | 0.00 | 0.00 | 57 | 1017.0 |
| 20260503012355 | 6 | 294 | 6.4 | 9.7 | 0.00 | 0.00 | 0.00 | 54 | 1017.3 |
| 20260503011851 | 6 | 266 | 0.0 | 1.6 | 0.00 | 0.00 | 0.00 | 54 | 1017.0 |
| 20260503011348 | 6 | 38 | 0.0 | 4.8 | 0.00 | 0.00 | 0.00 | 54 | 1017.0 |
| 20260503010845 | 6 | 268 | 0.0 | 3.2 | 0.00 | 0.00 | 0.00 | 55 | 1016.8 |
| 20260503010342 | 7 | 232 | 0.0 | 0.0 | 0.00 | 0.00 | 0.00 | 52 | 1016.7 |
| 20260503005838 | 7 | 31 | 1.6 | 1.6 | 0.00 | 0.00 | 0.00 | 53 | 1016.6 |
| 20260503005336 | 7 | 302 | 3.2 | 11.3 | 0.00 | 0.00 | 0.00 | 50 | 1016.4 |
| 20260503004832 | 7 | 284 | 3.2 | 4.8 | 0.00 | 0.00 | 0.00 | 50 | 1016.5 |
| 20260503004330 | 7 | 234 | 0.0 | 1.6 | 0.00 | 0.00 | 0.00 | 53 | 1016.5 |
| 20260503003827 | 7 | 137 | 0.0 | 0.0 | 0.00 | 0.00 | 0.00 | 51 | 1016.5 |
| 20260503003324 | 7 | 21 | 1.6 | 4.8 | 0.00 | 0.00 | 0.00 | 51 | 1016.4 |
| 20260503002821 | 7 | 277 | 1.6 | 6.4 | 0.00 | 0.00 | 0.00 | 48 | 1016.4 |
| 20260503002318 | 7 | 28 | 3.2 | 9.7 | 0.00 | 0.00 | 0.00 | 49 | 1016.4 |
| 20260503001814 | 7 | 333 | 3.2 | 3.2 | 0.00 | 0.00 | 0.00 | 51 | 1016.1 |
| 20260503001311 | 7 | 269 | 0.0 | 9.7 | 0.00 | 0.00 | 0.00 | 49 | 1016.2 |
| 20260503000808 | 7 | 252 | 0.0 | 3.2 | 0.00 | 0.00 | 0.00 | 48 | 1016.2 |
| 20260503000306 | 7 | 293 | 1.6 | 6.4 | 0.00 | 0.00 | 0.00 | 48 | 1016.0 |
| 20260502235802 | 7 | 293 | 1.6 | 6.4 | 0.00 | 0.00 | 0.00 | 48 | 1016.0 |
| 20260502235300 | 7 | 245 | 1.6 | 4.8 | 0.00 | 0.00 | 0.00 | 48 | 1016.1 |
| 20260502234756 | 7 | 239 | 0.0 | 0.0 | 0.00 | 0.00 | 0.00 | 49 | 1016.2 |
| 20260502234253 | 7 | 357 | 0.0 | 0.0 | 0.00 | 0.00 | 0.00 | 47 | 1016.0 |
| 20260502233749 | 7 | 277 | 4.8 | 6.4 | 0.00 | 0.00 | 0.00 | 47 | 1015.9 |
| 20260502233247 | 7 | 194 | 1.6 | 9.7 | 0.00 | 0.00 | 0.00 | 48 | 1016.0 |
| 20260502232742 | 7 | 214 | 0.0 | 0.0 | 0.00 | 0.00 | 0.00 | 50 | 1015.8 |
| 20260502232239 | 8 | 274 | 0.0 | 0.0 | 0.00 | 0.00 | 0.00 | 48 | 1015.9 |
| 20260502231736 | 7 | 236 | 0.0 | 0.0 | 0.00 | 0.00 | 0.00 | 47 | 1015.8 |
| 20260502231234 | 7 | 243 | 0.0 | 3.2 | 0.00 | 0.00 | 0.00 | 47 | 1015.8 |
| 20260502230732 | 7 | 279 | 1.6 | 6.4 | 0.00 | 0.00 | 0.00 | 47 | 1015.9 |
| 20260502230230 | 7 | 29 | 3.2 | 4.8 | 0.00 | 0.00 | 0.00 | 49 | 1016.0 |
| 20260502225726 | 8 | 34 | 6.4 | 14.5 | 0.00 | 0.00 | 0.00 | 46 | 1016.0 |
| 20260502225218 | 8 | 147 | 3.2 | 6.4 | 0.00 | 0.00 | 0.00 | 47 | 1015.7 |
| 20260502224714 | 8 | 37 | 6.4 | 9.7 | 0.00 | 0.00 | 0.00 | 46 | 1015.7 |
| 20260502224211 | 8 | 246 | 0.0 | 4.8 | 0.00 | 0.00 | 0.00 | 46 | 1015.7 |
| 20260502223709 | 8 | 270 | 8.0 | 16.1 | 0.00 | 0.00 | 0.00 | 46 | 1015.9 |
| 20260502223207 | 8 | 270 | 8.0 | 16.1 | 0.00 | 0.00 | 0.00 | 46 | 1015.9 |
| 20260502222704 | 8 | 199 | 0.0 | 3.2 | 0.00 | 0.00 | 0.00 | 49 | 1015.7 |
| 20260502222200 | 8 | 208 | 3.2 | 6.4 | 0.00 | 0.00 | 0.00 | 46 | 1015.9 |
| 20260502221656 | 8 | 73 | 0.0 | 1.6 | 0.00 | 0.00 | 0.00 | 48 | 1015.8 |
| 20260502221153 | 8 | 297 | 4.8 | 9.7 | 0.00 | 0.00 | 0.00 | 45 | 1015.4 |